• In United Kingdom
  • List of Countries
  • For 7 days
  • Water Temperature
  • Satellite Maps
  • Weather Map
  • Weather Widgets
  • user-avatar
    Login

    Hourly Weather Klagenfurt

    Today, 18 August, Friday

    Time Temperature Precipitation Wind Pressure Humidity
    00:00 +16°C° 0 mm 1 mps 693 mmHg 80%
    01:00 +18°C° 0 mm 1 mps 693 mmHg 81%
    02:00 +16°C° 0 mm 1 mps 693 mmHg 82%
    03:00 +16°C° 0 mm 1 mps 693 mmHg 83%
    04:00 +16°C° 0 mm 1 mps 692 mmHg 84%
    05:00 +18°C° 0 mm 1 mps 693 mmHg 81%
    06:00 +19°C° 0 mm 1 mps 693 mmHg 78%
    07:00 +21°C° 0 mm 1 mps 694 mmHg 73%
    08:00 +23°C° 0 mm 1 mps 694 mmHg 65%
    09:00 +26°C° 0 mm 1 mps 694 mmHg 57%
    10:00 +28°C° 0 mm 1 mps 694 mmHg 48%
    11:00 +29°C° 0 mm 1 mps 694 mmHg 45%
    12:00 +30°C° 0 mm 1 mps 694 mmHg 41%
    13:00 +30°C° 0 mm 2 mps 694 mmHg 38%
    14:00 +30°C° 0 mm 2 mps 693 mmHg 39%
    15:00 +30°C° 0 mm 2 mps 693 mmHg 40%
    16:00 +29°C° 0 mm 2 mps 692 mmHg 40%
    17:00 +27°C° 0 mm 2 mps 692 mmHg 50%
    18:00 +24°C° 0 mm 1 mps 691 mmHg 60%
    19:00 +22°C° 0 mm 1 mps 690 mmHg 69%
    20:00 +21°C° 0 mm 1 mps 690 mmHg 72%
    21:00 +20°C° 0 mm 1 mps 690 mmHg 75%
    22:00 +19°C° 0 mm 1 mps 690 mmHg 78%
    23:00 +18°C° 0 mm 1 mps 690 mmHg 78%

    Tomorrow, 19 August, Saturday

    Time Temperature Precipitation Wind Pressure Humidity
    00:00 +18°C° 0 mm 1 mps 690 mmHg 79%
    01:00 +16°C° 0 mm 1 mps 690 mmHg 80%
    02:00 +16°C° 0 mm 1 mps 690 mmHg 81%
    03:00 +16°C° 0 mm 1 mps 689 mmHg 81%
    04:00 +16°C° 0 mm 1 mps 689 mmHg 81%
    05:00 +18°C° 0 mm 1 mps 690 mmHg 79%
    06:00 +19°C° 0 mm 1 mps 690 mmHg 76%
    07:00 +18°C° 0 mm 0 mps 690 mmHg 74%
    08:00 +21°C° 0.2 mm 1 mps 691 mmHg 70%
    09:00 +22°C° 0.2 mm 1 mps 691 mmHg 66%
    10:00 +24°C° 0.2 mm 1 mps 692 mmHg 62%
    11:00 +23°C° 0.8 mm 1 mps 692 mmHg 66%
    12:00 +23°C° 0.8 mm 1 mps 692 mmHg 69%
    13:00 +23°C° 0.8 mm 1 mps 692 mmHg 73%
    14:00 +20°C° 3.1 mm 2 mps 691 mmHg 79%
    15:00 +18°C° 3.1 mm 2 mps 691 mmHg 84%
    16:00 +16°C° 3.1 mm 2 mps 691 mmHg 90%
    17:00 +15°C° 1.9 mm 2 mps 691 mmHg 91%
    18:00 +14°C° 1.9 mm 2 mps 691 mmHg 93%
    19:00 +13°C° 1.9 mm 2 mps 691 mmHg 94%
    20:00 +12°C° 1.6 mm 2 mps 692 mmHg 94%
    21:00 +12°C° 1.6 mm 1 mps 692 mmHg 95%
    22:00 +12°C° 1.6 mm 1 mps 692 mmHg 95%
    23:00 +12°C° 1.8 mm 1 mps 692 mmHg 95%

    Day after tomorrow, 20 August, Sunday

    Time Temperature Precipitation Wind Pressure Humidity
    00:00 +12°C° 1.8 mm 1 mps 692 mmHg 95%
    01:00 +12°C° 1.8 mm 1 mps 692 mmHg 95%
    02:00 +11°C° 0.4 mm 1 mps 692 mmHg 95%
    03:00 +11°C° 0.4 mm 1 mps 692 mmHg 95%
    04:00 +11°C° 0.4 mm 1 mps 692 mmHg 95%
    05:00 +11°C° 0 mm 1 mps 692 mmHg 93%
    06:00 +12°C° 0 mm 1 mps 692 mmHg 92%
    07:00 +12°C° 0 mm 1 mps 692 mmHg 90%
    08:00 +14°C° 0 mm 1 mps 693 mmHg 79%
    09:00 +16°C° 0 mm 2 mps 693 mmHg 68%
    10:00 +18°C° 0 mm 2 mps 694 mmHg 57%
    11:00 +19°C° 0.1 mm 2 mps 694 mmHg 54%
    12:00 +20°C° 0.1 mm 2 mps 694 mmHg 50%
    13:00 +21°C° 0.1 mm 2 mps 694 mmHg 47%
    14:00 +21°C° 0 mm 2 mps 694 mmHg 47%
    15:00 +21°C° 0 mm 2 mps 694 mmHg 46%
    16:00 +21°C° 0 mm 2 mps 693 mmHg 46%
    17:00 +20°C° 0 mm 1 mps 693 mmHg 54%
    18:00 +18°C° 0 mm 1 mps 693 mmHg 61%
    19:00 +15°C° 0 mm 1 mps 693 mmHg 69%
    20:00 +14°C° 0 mm 1 mps 693 mmHg 71%
    21:00 +12°C° 0 mm 1 mps 693 mmHg 74%
    22:00 +11°C° 0 mm 1 mps 694 mmHg 76%
    23:00 +11°C° 0 mm 1 mps 694 mmHg 78%

    21 August, Monday

    Time Temperature Precipitation Wind Pressure Humidity
    00:00 +10°C° 0 mm 1 mps 693 mmHg 79%
    01:00 +10°C° 0 mm 1 mps 693 mmHg 81%
    02:00 +9°C° 0 mm 1 mps 693 mmHg 82%
    03:00 +9°C° 0 mm 1 mps 693 mmHg 83%
    04:00 +9°C° 0 mm 1 mps 693 mmHg 83%
    05:00 +10°C° 0 mm 1 mps 693 mmHg 79%
    06:00 +11°C° 0 mm 1 mps 693 mmHg 75%
    07:00 +12°C° 0 mm 1 mps 694 mmHg 71%
    08:00 +15°C° 0 mm 1 mps 694 mmHg 62%
    09:00 +19°C° 0 mm 1 mps 695 mmHg 52%
    10:00 +21°C° 0 mm 1 mps 695 mmHg 43%
    11:00 +22°C° 0 mm 1 mps 695 mmHg 40%
    12:00 +23°C° 0 mm 1 mps 695 mmHg 37%
    13:00 +24°C° 0 mm 1 mps 695 mmHg 34%
    14:00 +24°C° 0 mm 1 mps 694 mmHg 35%
    15:00 +23°C° 0 mm 1 mps 694 mmHg 36%
    16:00 +23°C° 0 mm 1 mps 694 mmHg 37%
    17:00 +21°C° 0 mm 1 mps 693 mmHg 47%
    18:00 +18°C° 0 mm 1 mps 693 mmHg 57%
    19:00 +15°C° 0 mm 1 mps 693 mmHg 68%
    20:00 +13°C° 0 mm 1 mps 693 mmHg 71%
    21:00 +12°C° 0 mm 1 mps 693 mmHg 73%
    22:00 +11°C° 0 mm 1 mps 694 mmHg 76%
    23:00 +11°C° 0 mm 1 mps 693 mmHg 77%

    22 August, Tuesday

    Time Temperature Precipitation Wind Pressure Humidity
    00:00 +10°C° 0 mm 1 mps 693 mmHg 78%
    01:00 +10°C° 0 mm 1 mps 693 mmHg 79%
    02:00 +10°C° 0 mm 1 mps 693 mmHg 80%
    03:00 +9°C° 0 mm 1 mps 693 mmHg 81%
    04:00 +9°C° 0 mm 1 mps 693 mmHg 82%
    05:00 +10°C° 0 mm 1 mps 693 mmHg 78%
    06:00 +12°C° 0 mm 1 mps 694 mmHg 75%
    07:00 +12°C° 0 mm 0 mps 694 mmHg 72%
    08:00 +15°C° 0 mm 0 mps 694 mmHg 63%
    09:00 +18°C° 0 mm 0 mps 695 mmHg 54%
    10:00 +20°C° 0 mm 0 mps 695 mmHg 45%
    11:00 +23°C° 0 mm 1 mps 695 mmHg 43%
    12:00 +24°C° 0 mm 1 mps 695 mmHg 41%
    13:00 +25°C° 0 mm 1 mps 695 mmHg 38%
    14:00 +25°C° 0 mm 1 mps 694 mmHg 40%
    15:00 +24°C° 0 mm 1 mps 694 mmHg 41%
    16:00 +24°C° 0 mm 1 mps 693 mmHg 42%
    17:00 +22°C° 0 mm 1 mps 693 mmHg 53%
    18:00 +19°C° 0 mm 1 mps 693 mmHg 63%
    19:00 +16°C° 0 mm 1 mps 692 mmHg 74%
    20:00 +15°C° 0 mm 1 mps 692 mmHg 77%
    21:00 +14°C° 0 mm 1 mps 692 mmHg 80%
    22:00 +13°C° 0 mm 1 mps 692 mmHg 83%
    23:00 +13°C° 0 mm 1 mps 692 mmHg 83%

    23 August, Wednesday

    Time Temperature Precipitation Wind Pressure Humidity
    00:00 +12°C° 0 mm 1 mps 692 mmHg 84%
    01:00 +12°C° 0 mm 1 mps 692 mmHg 85%
    02:00 +11°C° 0 mm 1 mps 692 mmHg 85%
    03:00 +11°C° 0 mm 1 mps 692 mmHg 86%
    04:00 +10°C° 0 mm 1 mps 692 mmHg 86%
    05:00 +11°C° 0 mm 0 mps 692 mmHg 82%
    06:00 +12°C° 0 mm 0 mps 692 mmHg 78%
    07:00 +13°C° 0 mm 0 mps 693 mmHg 74%
    08:00 +16°C° 0 mm 0 mps 693 mmHg 66%
    09:00 +20°C° 0 mm 1 mps 694 mmHg 58%
    10:00 +23°C° 0 mm 1 mps 694 mmHg 50%
    11:00 +24°C° 0 mm 1 mps 694 mmHg 47%
    12:00 +25°C° 0 mm 1 mps 694 mmHg 45%
    13:00 +26°C° 0 mm 1 mps 694 mmHg 43%
    14:00 +26°C° 0.2 mm 1 mps 694 mmHg 45%
    15:00 +26°C° 0.2 mm 1 mps 693 mmHg 47%
    16:00 +25°C° 0.2 mm 1 mps 693 mmHg 49%
    17:00 +23°C° 0.2 mm 1 mps 693 mmHg 59%
    18:00 +20°C° 0.2 mm 1 mps 693 mmHg 69%
    19:00 +18°C° 0.2 mm 1 mps 692 mmHg 79%
    20:00 +16°C° 0 mm 1 mps 692 mmHg 82%
    21:00 +14°C° 0 mm 0 mps 693 mmHg 85%
    22:00 +14°C° 0 mm 0 mps 693 mmHg 87%
    23:00 +13°C° 0 mm 0 mps 693 mmHg 88%
    Show more